Карточка аэропорта UWLW

Внимание!
Информация на этой странице в стадии наполнения.
Если вы не увидели какой-то информации, или заметили неточность - пожалуйста сообщите нам!
Спасибо!
Команда RU-STAFF
Название аэропортаВосточный
Название аэропорта (англ.)Vostochny
Превышение252 ft. (76.8 m.)
Координаты54°24', 48°48'
Высота перехода900m
Эшелон переходаQFE>=726mm:FL050; QFE<726:FL060
Коды ответчика6725-6727
Зона ОрВДСамара РПИ (UWWW)
Данные METARUWLW 161100Z 26007MPS 230V290 CAVOK 12/02 Q1002 R20/CLRD60 NOSIG RMK QFE746/0995
Проноз погоды (TAF)UWLW 160747Z 1609/1709 24005G10MPS 9999 BKN020 TX15/1709Z TN04/1702Z TEMPO 1609/1615 27007G14MPS 6000 -SHRA BKN016CB BECMG 1615/1617 18003MPS
NOTAMshow/hide NOTAM
AWOS   TABLE

Информация о ВПП

ВПП Длина ВПП (м.) Покрытие Курс ВПП Частота ILS
025000Железобетон20110.1
205000Железобетон200110.1

Диспетчерские позиции


Сценарии



Спутниковое изображение